| time (UTC) | temp F | wind direction | speed knots | gust knots | rain 1hr in | rain 24hr in | rain mn in | humidity % | barometer mb |
| 20260510095022 | 70 | 194 | 0.0 | 0.0 | 0.00 | 0.19 | 0.00 | 94 | 1011.5 |
| 20260510094522 | 70 | 194 | 0.0 | 0.9 | 0.00 | 0.19 | 0.00 | 94 | 1011.4 |
| 20260510094019 | 70 | 194 | 0.0 | 1.7 | 0.00 | 0.19 | 0.00 | 94 | 1011.4 |
| 20260510093519 | 70 | 194 | 0.9 | 1.7 | 0.00 | 0.19 | 0.00 | 94 | 1011.3 |
| 20260510093019 | 70 | 194 | 0.9 | 1.7 | 0.00 | 0.19 | 0.00 | 93 | 1011.3 |
| 20260510092518 | 70 | 151 | 0.0 | 0.9 | 0.00 | 0.19 | 0.00 | 93 | 1011.4 |
| 20260510092018 | 70 | 151 | 0.0 | 0.0 | 0.00 | 0.19 | 0.00 | 93 | 1011.5 |
| 20260510091539 | 70 | 151 | 0.0 | 0.0 | 0.00 | 0.19 | 0.00 | 93 | 1011.5 |
| 20260510091016 | 70 | 151 | 0.0 | 0.0 | 0.00 | 0.19 | 0.00 | 93 | 1011.5 |
| 20260510090515 | 70 | 151 | 0.0 | 0.0 | 0.00 | 0.19 | 0.00 | 93 | 1011.4 |
| 20260510090015 | 71 | 151 | 0.0 | 0.0 | 0.00 | 0.19 | 0.00 | 93 | 1011.5 |
| 20260510085515 | 71 | 151 | 0.0 | 0.0 | 0.00 | 0.19 | 0.00 | 93 | 1011.4 |
| 20260510085014 | 71 | 151 | 0.0 | 0.0 | 0.00 | 0.19 | 0.00 | 93 | 1011.4 |
| 20260510084514 | 71 | 151 | 0.0 | 0.9 | 0.00 | 0.19 | 0.00 | 93 | 1011.4 |
| 20260510084013 | 71 | 151 | 0.0 | 1.7 | 0.00 | 0.19 | 0.00 | 93 | 1011.4 |
| 20260510083520 | 71 | 151 | 0.0 | 1.7 | 0.00 | 0.19 | 0.00 | 93 | 1011.4 |
| 20260510083012 | 71 | 152 | 0.9 | 1.7 | 0.00 | 0.19 | 0.00 | 93 | 1011.5 |
| 20260510082512 | 71 | 130 | 0.9 | 1.7 | 0.00 | 0.19 | 0.00 | 92 | 1011.4 |
| 20260510082011 | 71 | 130 | 0.9 | 1.7 | 0.00 | 0.19 | 0.00 | 92 | 1011.4 |
| 20260510081528 | 71 | 163 | 0.0 | 1.7 | 0.00 | 0.19 | 0.00 | 92 | 1011.5 |
| 20260510081012 | 71 | 163 | 0.0 | 0.9 | 0.00 | 0.19 | 0.00 | 92 | 1011.5 |
| 20260510080509 | 72 | 163 | 0.0 | 1.7 | 0.00 | 0.19 | 0.00 | 92 | 1011.5 |
| 20260510080013 | 72 | 163 | 0.0 | 2.6 | 0.00 | 0.19 | 0.00 | 92 | 1011.4 |
| 20260510075512 | 72 | 163 | 0.9 | 2.6 | 0.00 | 0.19 | 0.00 | 92 | 1011.4 |
| 20260510075012 | 72 | 94 | 0.9 | 2.6 | 0.00 | 0.19 | 0.00 | 91 | 1011.6 |
| 20260510074510 | 72 | 90 | 0.9 | 2.6 | 0.00 | 0.19 | 0.00 | 91 | 1011.5 |
| 20260510074014 | 72 | 86 | 0.9 | 2.6 | 0.00 | 0.19 | 0.00 | 91 | 1011.5 |
| 20260510073513 | 72 | 85 | 0.9 | 2.6 | 0.00 | 0.19 | 0.00 | 91 | 1011.4 |
| 20260510073011 | 72 | 119 | 0.9 | 3.5 | 0.00 | 0.19 | 0.00 | 91 | 1011.5 |
| 20260510072507 | 72 | 125 | 1.7 | 3.5 | 0.00 | 0.19 | 0.00 | 90 | 1011.4 |
| 20260510072007 | 73 | 145 | 2.6 | 4.3 | 0.00 | 0.19 | 0.00 | 89 | 1011.5 |
| 20260510071511 | 73 | 141 | 2.6 | 4.3 | 0.00 | 0.19 | 0.00 | 89 | 1011.5 |
| 20260510071009 | 73 | 136 | 2.6 | 6.1 | 0.00 | 0.19 | 0.00 | 89 | 1011.5 |
| 20260510070506 | 73 | 141 | 3.5 | 6.1 | 0.00 | 0.19 | 0.00 | 89 | 1011.7 |
| 20260510070011 | 73 | 130 | 2.6 | 6.1 | 0.00 | 0.19 | 0.00 | 89 | 1011.7 |
| 20260510065506 | 73 | 111 | 3.5 | 6.1 | 0.00 | 0.19 | 0.00 | 89 | 1011.8 |
| 20260510065008 | 73 | 122 | 3.5 | 6.1 | 0.00 | 0.19 | 0.00 | 89 | 1011.8 |
| 20260510064523 | 73 | 122 | 2.6 | 5.2 | 0.00 | 0.19 | 0.00 | 90 | 1012.0 |
| 20260510064005 | 73 | 130 | 2.6 | 5.2 | 0.00 | 0.19 | 0.00 | 90 | 1011.9 |
| 20260510063505 | 73 | 136 | 2.6 | 5.2 | 0.00 | 0.19 | 0.00 | 90 | 1011.9 |
| 20260510063014 | 73 | 113 | 1.7 | 7.0 | 0.00 | 0.19 | 0.00 | 90 | 1011.8 |
| 20260510062504 | 72 | 106 | 4.3 | 7.0 | 0.00 | 0.19 | 0.00 | 90 | 1011.9 |
| 20260510062005 | 72 | 114 | 2.6 | 3.5 | 0.00 | 0.19 | 0.00 | 90 | 1012.1 |
| 20260510061505 | 72 | 103 | 1.7 | 4.3 | 0.00 | 0.19 | 0.00 | 90 | 1012.1 |
| 20260510061003 | 72 | 90 | 2.6 | 5.2 | 0.00 | 0.19 | 0.00 | 90 | 1012.0 |
| 20260510060501 | 72 | 76 | 2.6 | 6.1 | 0.00 | 0.19 | 0.00 | 90 | 1012.1 |
| 20260510060009 | 72 | 102 | 3.5 | 6.1 | 0.00 | 0.19 | 0.00 | 90 | 1012.0 |
| 20260510055501 | 72 | 85 | 2.6 | 5.2 | 0.00 | 0.19 | 0.00 | 89 | 1012.1 |
| 20260510055000 | 72 | 67 | 2.6 | 3.5 | 0.00 | 0.19 | 0.00 | 89 | 1011.9 |
| 20260510054604 | 72 | 87 | 0.9 | 2.6 | 0.00 | 0.19 | 0.00 | 89 | 1011.8 |
| 20260510054101 | 72 | 103 | 0.9 | 2.6 | 0.00 | 0.19 | 0.00 | 89 | 1011.8 |
| 20260510053602 | 72 | 74 | 1.7 | 2.6 | 0.00 | 0.19 | 0.00 | 88 | 1011.9 |
| 20260510053100 | 72 | 85 | 1.7 | 3.5 | 0.00 | 0.19 | 0.00 | 88 | 1011.9 |
| 20260510052559 | 72 | 85 | 1.7 | 5.2 | 0.00 | 0.19 | 0.00 | 88 | 1011.9 |
| 20260510052058 | 73 | 71 | 3.5 | 5.2 | 0.00 | 0.19 | 0.00 | 87 | 1011.9 |
| 20260510051607 | 73 | 79 | 1.7 | 5.2 | 0.00 | 0.19 | 0.00 | 87 | 1011.8 |
| 20260510051058 | 73 | 111 | 2.6 | 5.2 | 0.00 | 0.19 | 0.00 | 86 | 1011.6 |
| 20260510050557 | 74 | 126 | 2.6 | 5.2 | 0.00 | 0.19 | 0.00 | 86 | 1011.5 |
| 20260510050052 | 74 | 123 | 2.6 | 7.0 | 0.00 | 0.19 | 0.00 | 85 | 1011.5 |
| 20260510045552 | 75 | 105 | 3.5 | 8.7 | 0.00 | 0.19 | 0.19 | 84 | 1011.6 |
| 20260510045052 | 75 | 141 | 5.2 | 8.7 | 0.00 | 0.19 | 0.19 | 84 | 1011.3 |
| 20260510044602 | 75 | 178 | 5.2 | 8.7 | 0.00 | 0.19 | 0.19 | 84 | 1011.1 |
| 20260510044052 | 75 | 196 | 6.1 | 9.6 | 0.00 | 0.19 | 0.19 | 85 | 1011.0 |
| 20260510043552 | 74 | 184 | 5.2 | 9.6 | 0.00 | 0.19 | 0.19 | 85 | 1010.9 |
| 20260510043051 | 74 | 178 | 4.3 | 7.0 | 0.00 | 0.19 | 0.19 | 85 | 1011.0 |
| 20260510042551 | 74 | 182 | 5.2 | 6.1 | 0.00 | 0.19 | 0.19 | 85 | 1011.0 |
| 20260510042150 | 73 | 161 | 4.3 | 6.1 | 0.00 | 0.19 | 0.19 | 85 | 1011.1 |
| 20260510041603 | 73 | 143 | 4.3 | 7.8 | 0.00 | 0.19 | 0.19 | 85 | 1011.2 |
| 20260510041050 | 73 | 166 | 5.2 | 7.8 | 0.00 | 0.19 | 0.19 | 85 | 1011.2 |
| 20260510040550 | 73 | 158 | 6.1 | 7.8 | 0.00 | 0.19 | 0.19 | 85 | 1011.2 |
| 20260510040048 | 73 | 159 | 4.3 | 7.0 | 0.00 | 0.19 | 0.19 | 85 | 1011.1 |
| 20260510035550 | 74 | 135 | 4.3 | 6.1 | 0.00 | 0.19 | 0.19 | 84 | 1011.2 |
| 20260510035049 | 74 | 140 | 3.5 | 5.2 | 0.00 | 0.19 | 0.19 | 84 | 1011.1 |
| 20260510034557 | 74 | 144 | 2.6 | 4.3 | 0.00 | 0.19 | 0.19 | 84 | 1011.2 |
| 20260510034049 | 74 | 133 | 2.6 | 4.3 | 0.00 | 0.19 | 0.19 | 83 | 1011.1 |
| 20260510033548 | 74 | 123 | 1.7 | 4.3 | 0.00 | 0.19 | 0.19 | 83 | 1011.1 |
| 20260510033049 | 74 | 138 | 2.6 | 4.3 | 0.00 | 0.19 | 0.19 | 83 | 1011.0 |
| 20260510032548 | 74 | 135 | 2.6 | 4.3 | 0.00 | 0.19 | 0.19 | 83 | 1011.0 |
| 20260510032047 | 74 | 142 | 1.7 | 3.5 | 0.00 | 0.19 | 0.19 | 83 | 1011.0 |
| 20260510031551 | 75 | 120 | 1.7 | 3.5 | 0.00 | 0.19 | 0.19 | 82 | 1010.9 |
| 20260510031046 | 75 | 127 | 1.7 | 3.5 | 0.00 | 0.19 | 0.19 | 81 | 1010.8 |
| 20260510030546 | 75 | 117 | 1.7 | 3.5 | 0.00 | 0.19 | 0.19 | 81 | 1010.8 |
| 20260510030055 | 75 | 148 | 0.9 | 2.6 | 0.00 | 0.19 | 0.19 | 80 | 1010.7 |
| 20260510025546 | 75 | 117 | 1.7 | 3.5 | 0.00 | 0.19 | 0.19 | 79 | 1010.6 |
| 20260510025048 | 76 | 121 | 1.7 | 6.1 | 0.00 | 0.19 | 0.19 | 78 | 1010.5 |
| 20260510024551 | 76 | 141 | 3.5 | 4.3 | 0.00 | 0.19 | 0.19 | 77 | 1010.4 |
| 20260510024045 | 76 | 157 | 3.5 | 5.2 | 0.00 | 0.19 | 0.19 | 76 | 1010.2 |
| 20260510023548 | 77 | 154 | 2.6 | 5.2 | 0.00 | 0.19 | 0.19 | 75 | 1010.0 |
| 20260510023045 | 77 | 144 | 2.6 | 6.1 | 0.00 | 0.19 | 0.19 | 75 | 1009.9 |
| 20260510022545 | 77 | 155 | 3.5 | 7.8 | 0.00 | 0.19 | 0.19 | 74 | 1009.8 |
| 20260510022047 | 77 | 146 | 4.3 | 8.7 | 0.00 | 0.19 | 0.19 | 73 | 1009.5 |
| 20260510021545 | 78 | 165 | 5.2 | 10.4 | 0.00 | 0.19 | 0.19 | 72 | 1009.3 |
| 20260510021045 | 78 | 170 | 7.0 | 10.4 | 0.00 | 0.19 | 0.19 | 72 | 1009.1 |
| 20260510020544 | 78 | 155 | 6.1 | 8.7 | 0.00 | 0.19 | 0.19 | 71 | 1009.0 |
| 20260510020044 | 78 | 174 | 7.0 | 8.7 | 0.00 | 0.19 | 0.19 | 71 | 1008.8 |
| 20260510015544 | 78 | 174 | 7.8 | 9.6 | 0.00 | 0.19 | 0.19 | 70 | 1008.8 |
| 20260510015046 | 79 | 165 | 7.8 | 8.7 | 0.00 | 0.19 | 0.19 | 70 | 1009.0 |
| 20260510014543 | 79 | 179 | 5.2 | 6.1 | 0.00 | 0.19 | 0.19 | 69 | 1009.2 |
| 20260510014043 | 79 | 167 | 3.5 | 5.2 | 0.00 | 0.19 | 0.19 | 69 | 1009.4 |
| 20260510013543 | 80 | 169 | 2.6 | 6.1 | 0.00 | 0.19 | 0.19 | 69 | 1009.4 |
| 20260510013051 | 80 | 157 | 3.5 | 7.0 | 0.00 | 0.19 | 0.19 | 69 | 1009.4 |
| 20260510012542 | 80 | 153 | 4.3 | 7.0 | 0.00 | 0.19 | 0.19 | 69 | 1009.5 |
| 20260510012042 | 80 | 175 | 4.3 | 7.0 | 0.00 | 0.19 | 0.19 | 70 | 1009.4 |
| 20260510011545 | 80 | 157 | 5.2 | 7.0 | 0.00 | 0.19 | 0.19 | 70 | 1009.4 |
| 20260510011042 | 80 | 149 | 4.3 | 7.0 | 0.00 | 0.19 | 0.19 | 70 | 1009.4 |
| 20260510010541 | 81 | 158 | 5.2 | 7.0 | 0.00 | 0.19 | 0.19 | 69 | 1009.4 |
| 20260510010042 | 81 | 153 | 5.2 | 7.0 | 0.00 | 0.19 | 0.19 | 69 | 1009.4 |
| 20260510005541 | 82 | 159 | 4.3 | 6.1 | 0.00 | 0.19 | 0.19 | 68 | 1009.5 |
| 20260510005043 | 82 | 153 | 3.5 | 6.1 | 0.00 | 0.19 | 0.19 | 68 | 1009.6 |
| 20260510004540 | 82 | 151 | 3.5 | 7.8 | 0.00 | 0.19 | 0.19 | 67 | 1009.4 |
| 20260510004040 | 83 | 128 | 6.1 | 10.4 | 0.00 | 0.19 | 0.19 | 65 | 1009.4 |
| 20260510003551 | 83 | 162 | 7.8 | 10.4 | 0.00 | 0.19 | 0.19 | 65 | 1009.4 |
| 20260510003052 | 84 | 159 | 7.0 | 12.2 | 0.00 | 0.19 | 0.19 | 65 | 1009.3 |
| 20260510002539 | 84 | 150 | 7.8 | 12.2 | 0.00 | 0.19 | 0.19 | 64 | 1009.2 |
| 20260510002040 | 84 | 157 | 7.0 | 12.2 | 0.00 | 0.19 | 0.19 | 63 | 1009.1 |
| 20260510001539 | 85 | 157 | 7.8 | 12.2 | 0.00 | 0.19 | 0.19 | 63 | 1009.0 |
| 20260510001039 | 85 | 156 | 7.8 | 12.2 | 0.00 | 0.19 | 0.19 | 64 | 1008.9 |
| 20260510000539 | 85 | 139 | 8.7 | 12.2 | 0.00 | 0.19 | 0.19 | 63 | 1008.9 |
| 20260510000038 | 85 | 130 | 9.6 | 14.8 | 0.00 | 0.19 | 0.19 | 63 | 1008.9 |
| 20260509235538 | 86 | 126 | 10.4 | 14.8 | 0.00 | 0.19 | 0.19 | 62 | 1008.8 |
| 20260509235038 | 86 | 142 | 9.6 | 13.9 | 0.00 | 0.19 | 0.19 | 62 | 1008.8 |
| 20260509234555 | 87 | 149 | 8.7 | 13.0 | 0.00 | 0.19 | 0.19 | 61 | 1008.8 |
| 20260509234037 | 87 | 152 | 8.7 | 13.9 | 0.00 | 0.19 | 0.19 | 61 | 1008.7 |
| 20260509233538 | 87 | 146 | 9.6 | 13.9 | 0.00 | 0.19 | 0.19 | 62 | 1008.8 |
| 20260509233044 | 87 | 159 | 11.3 | 14.8 | 0.00 | 0.19 | 0.19 | 60 | 1008.8 |
| 20260509232540 | 88 | 146 | 8.7 | 13.9 | 0.00 | 0.19 | 0.19 | 59 | 1008.8 |
| 20260509232037 | 88 | 131 | 9.6 | 13.9 | 0.00 | 0.19 | 0.19 | 58 | 1008.7 |
| 20260509231552 | 88 | 142 | 9.6 | 14.8 | 0.00 | 0.19 | 0.19 | 60 | 1008.7 |
| 20260509231038 | 88 | 147 | 11.3 | 14.8 | 0.00 | 0.19 | 0.19 | 57 | 1008.7 |
| 20260509230536 | 89 | 136 | 10.4 | 13.0 | 0.00 | 0.19 | 0.19 | 57 | 1008.7 |
| 20260509230036 | 89 | 139 | 7.8 | 13.0 | 0.00 | 0.19 | 0.19 | 57 | 1008.7 |
| 20260509225536 | 89 | 134 | 7.0 | 9.6 | 0.00 | 0.19 | 0.19 | 57 | 1008.7 |
| 20260509225038 | 89 | 167 | 5.2 | 10.4 | 0.00 | 0.19 | 0.19 | 55 | 1008.7 |
| 20260509224535 | 89 | 146 | 6.1 | 10.4 | 0.00 | 0.19 | 0.19 | 55 | 1008.6 |
| 20260509224038 | 90 | 126 | 6.1 | 10.4 | 0.00 | 0.19 | 0.19 | 55 | 1008.6 |
| 20260509223535 | 90 | 183 | 4.3 | 8.7 | 0.00 | 0.19 | 0.19 | 56 | 1008.6 |
| 20260509223037 | 90 | 121 | 2.6 | 7.0 | 0.00 | 0.19 | 0.19 | 55 | 1008.6 |
| 20260509222538 | 89 | 92 | 0.0 | 7.8 | 0.00 | 0.19 | 0.19 | 55 | 1008.6 |
| 20260509222036 | 89 | 115 | 2.6 | 9.6 | 0.00 | 0.19 | 0.19 | 57 | 1008.7 |
| 20260509221534 | 90 | 107 | 3.5 | 8.7 | 0.00 | 0.19 | 0.19 | 57 | 1008.7 |
| 20260509221036 | 89 | 98 | 0.9 | 5.2 | 0.00 | 0.19 | 0.19 | 54 | 1008.7 |
| 20260509220531 | 89 | 157 | 1.7 | 5.2 | 0.00 | 0.19 | 0.19 | 55 | 1008.7 |
| 20260509220031 | 89 | 157 | 1.7 | 7.0 | 0.00 | 0.19 | 0.19 | 58 | 1008.8 |
| 20260509215532 | 88 | 70 | 0.9 | 8.7 | 0.00 | 0.19 | 0.19 | 56 | 1008.7 |
| 20260509215031 | 89 | 134 | 3.5 | 10.4 | 0.00 | 0.19 | 0.19 | 56 | 1008.7 |
| 20260509214533 | 89 | 159 | 6.1 | 10.4 | 0.00 | 0.19 | 0.19 | 55 | 1008.8 |
| 20260509214035 | 89 | 128 | 2.6 | 9.6 | 0.00 | 0.19 | 0.19 | 58 | 1008.7 |
| 20260509213531 | 89 | 159 | 6.1 | 9.6 | 0.00 | 0.19 | 0.19 | 56 | 1008.7 |
| 20260509213031 | 89 | 144 | 5.2 | 7.0 | 0.00 | 0.19 | 0.19 | 56 | 1008.8 |
| 20260509212530 | 89 | 55 | 2.6 | 7.0 | 0.00 | 0.19 | 0.19 | 56 | 1008.7 |
| 20260509212029 | 89 | 43 | 2.6 | 7.0 | 0.00 | 0.19 | 0.19 | 56 | 1008.8 |
| 20260509211531 | 89 | 44 | 4.3 | 8.7 | 0.00 | 0.19 | 0.19 | 58 | 1008.9 |
| 20260509211029 | 89 | 64 | 4.3 | 8.7 | 0.00 | 0.19 | 0.19 | 57 | 1008.9 |
| 20260509210528 | 89 | 36 | 3.5 | 7.8 | 0.00 | 0.19 | 0.19 | 56 | 1008.9 |
| 20260509210030 | 89 | 34 | 2.6 | 8.7 | 0.00 | 0.19 | 0.19 | 57 | 1008.8 |
| 20260509205526 | 89 | 53 | 0.9 | 7.0 | 0.00 | 0.19 | 0.19 | 57 | 1008.9 |
| 20260509205026 | 89 | 17 | 1.7 | 7.0 | 0.00 | 0.19 | 0.19 | 57 | 1008.9 |
| 20260509204530 | 88 | 36 | 1.7 | 6.1 | 0.00 | 0.19 | 0.19 | 59 | 1008.9 |
| 20260509204029 | 88 | 122 | 1.7 | 6.1 | 0.00 | 0.19 | 0.19 | 57 | 1009.0 |
| 20260509203525 | 88 | 277 | 0.0 | 7.8 | 0.00 | 0.19 | 0.19 | 57 | 1009.0 |
| 20260509203034 | 88 | 360 | 3.5 | 7.8 | 0.00 | 0.19 | 0.19 | 57 | 1009.1 |
| 20260509202524 | 88 | 275 | 2.6 | 7.8 | 0.00 | 0.19 | 0.19 | 60 | 1009.1 |
| 20260509202026 | 88 | 336 | 4.3 | 7.8 | 0.00 | 0.19 | 0.19 | 59 | 1009.1 |
| 20260509201522 | 88 | 360 | 4.3 | 7.8 | 0.00 | 0.19 | 0.19 | 63 | 1009.2 |
| 20260509201021 | 87 | 271 | 0.9 | 7.0 | 0.00 | 0.19 | 0.19 | 60 | 1009.3 |
| 20260509200520 | 87 | 61 | 1.7 | 7.8 | 0.00 | 0.19 | 0.19 | 62 | 1009.3 |
| 20260509200020 | 87 | 319 | 4.3 | 9.6 | 0.00 | 0.19 | 0.19 | 62 | 1009.3 |
| 20260509195519 | 87 | 348 | 7.8 | 9.6 | 0.00 | 0.19 | 0.19 | 63 | 1009.3 |
| 20260509195022 | 87 | 355 | 6.1 | 9.6 | 0.00 | 0.19 | 0.19 | 63 | 1009.4 |
| 20260509194519 | 87 | 336 | 7.0 | 9.6 | 0.00 | 0.19 | 0.19 | 64 | 1009.5 |
| 20260509194017 | 86 | 355 | 1.7 | 9.6 | 0.00 | 0.19 | 0.19 | 63 | 1009.5 |
| 20260509193516 | 86 | 343 | 5.2 | 10.4 | 0.00 | 0.19 | 0.19 | 65 | 1009.6 |
| 20260509193017 | 86 | 10 | 7.0 | 10.4 | 0.00 | 0.19 | 0.19 | 66 | 1009.6 |
| 20260509192515 | 86 | 360 | 2.6 | 8.7 | 0.00 | 0.19 | 0.19 | 67 | 1009.7 |
| 20260509192018 | 86 | 331 | 5.2 | 9.6 | 0.00 | 0.19 | 0.19 | 66 | 1009.8 |
| 20260509191515 | 86 | 349 | 4.3 | 10.4 | 0.00 | 0.19 | 0.19 | 68 | 1009.8 |
| 20260509191018 | 85 | 335 | 4.3 | 10.4 | 0.00 | 0.19 | 0.19 | 67 | 1009.8 |
| 20260509190511 | 85 | 311 | 3.5 | 7.8 | 0.00 | 0.19 | 0.19 | 69 | 1009.8 |
| 20260509190017 | 85 | 275 | 2.6 | 7.8 | 0.00 | 0.19 | 0.19 | 69 | 1009.9 |
| 20260509185510 | 84 | 360 | 2.6 | 7.8 | 0.00 | 0.19 | 0.19 | 69 | 1010.0 |
| 20260509185010 | 84 | 336 | 1.7 | 9.6 | 0.00 | 0.19 | 0.19 | 70 | 1010.0 |
| 20260509184520 | 84 | 324 | 4.3 | 9.6 | 0.00 | 0.19 | 0.19 | 68 | 1010.2 |
| 20260509184009 | 84 | 19 | 3.5 | 7.0 | 0.00 | 0.19 | 0.19 | 70 | 1010.3 |
| 20260509183508 | 84 | 346 | 2.6 | 10.4 | 0.00 | 0.19 | 0.19 | 71 | 1010.4 |
| 20260509183007 | 83 | 294 | 3.5 | 10.4 | 0.00 | 0.19 | 0.19 | 69 | 1010.4 |
| 20260509182507 | 83 | 355 | 7.8 | 10.4 | 0.00 | 0.19 | 0.19 | 71 | 1010.3 |
| 20260509182005 | 83 | 52 | 0.9 | 4.3 | 0.00 | 0.19 | 0.19 | 70 | 1010.4 |
| 20260509181505 | 82 | 187 | 1.7 | 4.3 | 0.00 | 0.19 | 0.19 | 69 | 1010.6 |
| 20260509181006 | 82 | 337 | 2.6 | 7.8 | 0.00 | 0.19 | 0.19 | 72 | 1010.7 |
| 20260509180503 | 82 | 71 | 3.5 | 7.8 | 0.00 | 0.19 | 0.19 | 72 | 1010.7 |
| 20260509180005 | 82 | 338 | 2.6 | 7.8 | 0.00 | 0.19 | 0.19 | 72 | 1010.7 |
| 20260509175505 | 82 | 13 | 4.3 | 7.8 | 0.00 | 0.19 | 0.19 | 72 | 1010.6 |
| 20260509175000 | 82 | 21 | 1.7 | 8.7 | 0.00 | 0.19 | 0.19 | 73 | 1010.7 |
| 20260509174600 | 82 | 24 | 4.3 | 8.7 | 0.00 | 0.19 | 0.19 | 75 | 1010.8 |
| 20260509174059 | 81 | 360 | 1.7 | 5.2 | 0.00 | 0.19 | 0.19 | 74 | 1010.8 |
| 20260509173557 | 81 | 12 | 2.6 | 7.8 | 0.00 | 0.19 | 0.19 | 76 | 1010.9 |
| 20260509173102 | 81 | 351 | 5.2 | 7.8 | 0.00 | 0.19 | 0.19 | 77 | 1011.0 |
| 20260509172557 | 81 | 360 | 3.5 | 7.0 | 0.00 | 0.19 | 0.19 | 77 | 1011.0 |
| 20260509172056 | 81 | 339 | 2.6 | 7.0 | 0.00 | 0.19 | 0.19 | 76 | 1011.0 |
| 20260509171556 | 81 | 19 | 4.3 | 7.8 | 0.00 | 0.19 | 0.19 | 76 | 1011.1 |
| 20260509171057 | 81 | 58 | 3.5 | 7.8 | 0.00 | 0.19 | 0.19 | 79 | 1011.2 |
| 20260509170555 | 81 | 360 | 1.7 | 7.0 | 0.00 | 0.19 | 0.19 | 78 | 1011.1 |
| 20260509165555 | 80 | 346 | 1.7 | 5.2 | 0.00 | 0.19 | 0.19 | 77 | 1010.8 |
| 20260509165052 | 80 | 5 | 1.7 | 7.0 | 0.00 | 0.19 | 0.19 | 80 | 1010.6 |
| 20260509164553 | 80 | 61 | 2.6 | 5.2 | 0.00 | 0.19 | 0.19 | 81 | 1010.7 |
| 20260509164055 | 80 | 355 | 2.6 | 5.2 | 0.00 | 0.19 | 0.19 | 81 | 1010.6 |
| 20260509163551 | 80 | 27 | 2.6 | 5.2 | 0.00 | 0.19 | 0.19 | 80 | 1010.7 |
| 20260509163102 | 80 | 346 | 2.6 | 4.3 | 0.00 | 0.19 | 0.19 | 80 | 1010.5 |
| 20260509162550 | 80 | 360 | 0.0 | 3.5 | 0.00 | 0.19 | 0.19 | 79 | 1010.7 |
| 20260509162050 | 79 | 23 | 1.7 | 3.5 | 0.00 | 0.19 | 0.19 | 82 | 1010.7 |
| 20260509161553 | 79 | 128 | 0.0 | 1.7 | 0.00 | 0.19 | 0.19 | 81 | 1010.5 |
| 20260509161051 | 78 | 89 | 0.0 | 1.7 | 0.00 | 0.19 | 0.19 | 82 | 1010.6 |
| 20260509160547 | 78 | 329 | 0.9 | 3.5 | 0.00 | 0.19 | 0.19 | 83 | 1010.5 |
| 20260509160046 | 78 | 5 | 0.9 | 3.5 | 0.00 | 0.19 | 0.19 | 83 | 1010.4 |
| 20260509155546 | 78 | 351 | 1.7 | 3.5 | 0.00 | 0.19 | 0.19 | 84 | 1010.6 |
| 20260509155049 | 78 | 5 | 0.9 | 2.6 | 0.00 | 0.19 | 0.19 | 84 | 1010.6 |
| 20260509154545 | 78 | 147 | 0.0 | 2.6 | 0.00 | 0.19 | 0.19 | 85 | 1010.5 |
| 20260509154044 | 78 | 184 | 0.9 | 2.6 | 0.00 | 0.19 | 0.19 | 85 | 1010.3 |
| 20260509153543 | 77 | 185 | 0.0 | 2.6 | 0.00 | 0.19 | 0.19 | 85 | 1010.3 |
| 20260509153045 | 77 | 184 | 0.0 | 3.5 | 0.00 | 0.19 | 0.19 | 86 | 1010.2 |
| 20260509152543 | 77 | 183 | 1.7 | 4.3 | 0.00 | 0.19 | 0.19 | 85 | 1010.2 |
| 20260509152043 | 77 | 272 | 0.9 | 3.5 | 0.00 | 0.19 | 0.19 | 86 | 1010.5 |
| 20260509151542 | 77 | 272 | 0.9 | 3.5 | 0.00 | 0.19 | 0.19 | 86 | 1010.7 |
| 20260509151041 | 77 | 294 | 0.9 | 2.6 | 0.00 | 0.19 | 0.19 | 85 | 1010.8 |
| 20260509150541 | 77 | 244 | 0.0 | 1.7 | 0.00 | 0.19 | 0.19 | 84 | 1011.0 |
| 20260509150039 | 77 | 244 | 0.9 | 1.7 | 0.00 | 0.19 | 0.19 | 83 | 1011.1 |
| 20260509145539 | 77 | 244 | 0.0 | 1.7 | 0.00 | 0.19 | 0.19 | 83 | 1011.1 |
| 20260509145038 | 77 | 244 | 0.9 | 5.2 | 0.00 | 0.19 | 0.19 | 83 | 1010.9 |
| 20260509144536 | 76 | 182 | 3.5 | 5.2 | 0.00 | 0.19 | 0.19 | 83 | 1010.7 |
| 20260509144038 | 76 | 194 | 2.6 | 7.0 | 0.00 | 0.19 | 0.19 | 83 | 1010.5 |
| 20260509143535 | 76 | 168 | 5.2 | 7.0 | 0.00 | 0.19 | 0.19 | 84 | 1010.6 |
| 20260509143045 | 76 | 214 | 3.5 | 5.2 | 0.00 | 0.19 | 0.19 | 88 | 1010.9 |
| 20260509142535 | 76 | 223 | 3.5 | 5.2 | 0.00 | 0.19 | 0.19 | 88 | 1010.9 |
| 20260509142036 | 76 | 227 | 2.6 | 6.1 | 0.00 | 0.19 | 0.19 | 87 | 1011.0 |
| 20260509141535 | 76 | 239 | 3.5 | 6.1 | 0.00 | 0.19 | 0.19 | 87 | 1011.0 |
| 20260509141034 | 76 | 257 | 3.5 | 6.1 | 0.00 | 0.19 | 0.19 | 86 | 1010.9 |
| 20260509140533 | 76 | 305 | 1.7 | 6.1 | 0.00 | 0.19 | 0.19 | 87 | 1010.8 |
| 20260509140032 | 75 | 293 | 2.6 | 6.1 | 0.00 | 0.19 | 0.19 | 88 | 1011.1 |
| 20260509135534 | 75 | 279 | 3.5 | 8.7 | 0.00 | 0.19 | 0.19 | 89 | 1011.0 |
| 20260509135030 | 75 | 280 | 6.1 | 13.9 | 0.00 | 0.19 | 0.19 | 89 | 1011.3 |
| 20260509134531 | 75 | 327 | 7.0 | 13.9 | 0.00 | 0.19 | 0.19 | 89 | 1011.2 |
| 20260509134030 | 75 | 350 | 2.6 | 10.4 | 0.00 | 0.19 | 0.19 | 90 | 1011.2 |
| 20260509133529 | 75 | 215 | 4.3 | 13.9 | 0.00 | 0.19 | 0.19 | 91 | 1010.9 |
| 20260509133029 | 75 | 311 | 8.7 | 13.9 | 0.00 | 0.19 | 0.19 | 91 | 1011.0 |
| 20260509132529 | 75 | 306 | 7.0 | 13.0 | 0.00 | 0.19 | 0.19 | 91 | 1010.8 |
| 20260509132029 | 75 | 313 | 5.2 | 13.0 | 0.00 | 0.19 | 0.19 | 91 | 1010.3 |
| 20260509131528 | 75 | 202 | 9.6 | 13.0 | 0.00 | 0.19 | 0.19 | 91 | 1009.6 |
| 20260509131028 | 75 | 175 | 7.8 | 16.5 | 0.00 | 0.19 | 0.19 | 92 | 1009.1 |
| 20260509130527 | 75 | 164 | 10.4 | 21.7 | 0.00 | 0.19 | 0.19 | 92 | 1008.8 |
| 20260509130029 | 75 | 143 | 14.8 | 22.6 | 0.00 | 0.19 | 0.19 | 93 | 1007.9 |
| 20260509125533 | 75 | 130 | 17.4 | 22.6 | 0.01 | 0.19 | 0.19 | 93 | 1007.6 |
| 20260509125023 | 75 | 155 | 15.6 | 19.1 | 0.02 | 0.19 | 0.19 | 94 | 1009.0 |
| 20260509124534 | 75 | 164 | 10.4 | 20.0 | 0.02 | 0.19 | 0.19 | 94 | 1009.6 |
| 20260509124023 | 75 | 130 | 13.9 | 22.6 | 0.03 | 0.19 | 0.19 | 95 | 1009.3 |
| 20260509123523 | 75 | 149 | 17.4 | 22.6 | 0.05 | 0.19 | 0.19 | 95 | 1008.8 |
| 20260509123022 | 75 | 137 | 15.6 | 20.0 | 0.06 | 0.19 | 0.19 | 96 | 1008.7 |
| 20260509122521 | 74 | 120 | 13.9 | 20.0 | 0.07 | 0.19 | 0.19 | 96 | 1009.1 |
| 20260509122020 | 75 | 133 | 13.0 | 15.6 | 0.08 | 0.19 | 0.19 | 96 | 1009.6 |
| 20260509121528 | 75 | 131 | 11.3 | 14.8 | 0.08 | 0.19 | 0.19 | 96 | 1010.4 |
| 20260509121018 | 75 | 165 | 8.7 | 13.0 | 0.08 | 0.19 | 0.19 | 97 | 1010.9 |
| 20260509120517 | 74 | 169 | 7.0 | 9.6 | 0.09 | 0.19 | 0.19 | 97 | 1011.2 |
| 20260509120016 | 75 | 157 | 4.3 | 7.0 | 0.10 | 0.19 | 0.19 | 97 | 1011.6 |
| 20260509115516 | 75 | 164 | 5.2 | 8.7 | 0.12 | 0.18 | 0.18 | 97 | 1011.9 |
| 20260509115015 | 75 | 192 | 6.1 | 8.7 | 0.13 | 0.17 | 0.17 | 97 | 1012.2 |
| 20260509114536 | 75 | 198 | 5.2 | 7.8 | 0.15 | 0.17 | 0.17 | 97 | 1012.2 |
| 20260509114015 | 75 | 180 | 5.2 | 7.0 | 0.14 | 0.15 | 0.15 | 97 | 1012.3 |
| 20260509113516 | 75 | 187 | 5.2 | 8.7 | 0.13 | 0.14 | 0.14 | 97 | 1012.4 |
| 20260509113016 | 75 | 181 | 5.2 | 8.7 | 0.13 | 0.13 | 0.13 | 97 | 1012.4 |
| 20260509112514 | 75 | 182 | 3.5 | 7.0 | 0.12 | 0.12 | 0.12 | 97 | 1012.4 |
| 20260509112021 | 75 | 213 | 4.3 | 6.1 | 0.11 | 0.11 | 0.11 | 97 | 1012.4 |
| 20260509111513 | 74 | 192 | 2.6 | 7.0 | 0.11 | 0.11 | 0.11 | 97 | 1012.1 |
| 20260509111012 | 74 | 147 | 5.2 | 7.0 | 0.11 | 0.11 | 0.11 | 97 | 1011.7 |
| 20260509110514 | 74 | 152 | 1.7 | 5.2 | 0.10 | 0.10 | 0.10 | 97 | 1011.7 |
| 20260509110013 | 74 | 169 | 1.7 | 5.2 | 0.08 | 0.08 | 0.08 | 97 | 1011.7 |
| 20260509105510 | 74 | 175 | 4.3 | 5.2 | 0.06 | 0.06 | 0.06 | 97 | 1011.5 |
| 20260509105009 | 74 | 171 | 1.7 | 2.6 | 0.04 | 0.04 | 0.04 | 97 | 1011.3 |
| 20260509104507 | 74 | 245 | 0.9 | 3.5 | 0.01 | 0.01 | 0.01 | 96 | 1011.1 |
| 20260509104007 | 74 | 318 | 1.7 | 4.3 | 0.01 | 0.01 | 0.01 | 96 | 1010.8 |
| 20260509103506 | 74 | 271 | 2.6 | 4.3 | 0.01 | 0.01 | 0.01 | 96 | 1010.7 |
| 20260509103006 | 74 | 293 | 1.7 | 2.6 | 0.00 | 0.00 | 0.00 | 96 | 1010.4 |
| 20260509102506 | 74 | 211 | 0.9 | 2.6 | 0.00 | 0.00 | 0.00 | 96 | 1010.1 |
| 20260509102006 | 74 | 157 | 0.9 | 2.6 | 0.00 | 0.00 | 0.00 | 97 | 1009.9 |
| 20260509101507 | 74 | 180 | 0.9 | 2.6 | 0.00 | 0.00 | 0.00 | 97 | 1010.0 |
| 20260509101005 | 74 | 164 | 0.9 | 2.6 | 0.00 | 0.00 | 0.00 | 96 | 1010.0 |
| 20260509100507 | 74 | 164 | 0.9 | 2.6 | 0.00 | 0.00 | 0.00 | 96 | 1009.8 |
| 20260509100005 | 74 | 164 | 1.7 | 2.6 | 0.00 | 0.00 | 0.00 | 96 | 1009.6 |
| 20260509095510 | 74 | 177 | 0.0 | 2.6 | 0.00 | 0.00 | 0.00 | 96 | 1009.6 |